Main page
METAR-TAF:

METAR-TAF

Airports :

Kédougou Airport

Kédougou, Senegal

latitude: 12-34N, longitude: 012-13W, elevation: 178 m

Current weather observation

The report was made 1 hour and 0 minutes ago, at 22:00 UTC
Wind 4 kt from the Northwest
Temperature 30°C
Humidity 55%
Pressure 1013 hPa
Visibility 10 km or more
Broken clouds at a height of 1600 ft
Few clouds at a height of 3000 ft, Cumulonimbus.
thunderstorm

METAR: GOTK 252200Z 32004KT 9999 TS BKN016 FEW030CB 30/20 Q1013

Time: 23:00 (23:00 UTC)


TAF: missing

Weather observations and forecasts of more than 4000 airports (METAR and TAF reports).

The available stations are represented by yellow and red dots on the map.

Hover mouse over dot to see the name of the station.

Then click to see weather observations and forecasts.

To change the map : click on the green buttons with a black cross to zoom in, on the green button with a dash to zoom out, or on the green arrows for adjacent maps.


METAR-TAF: